Location: *
(23.5860°S, 65.4036°W)
Time: 00:40:41
(UTC+00:00)

ERBS - Pass Details

Date: 25 August 2019
Orbit: 418 x 425 km, 57.0° (Epoch: 20 September)

Event Time Altitude Azimuth Distance (km) Brightness Sun altitude
Rises 22:45:52 0° 192° (SSW) 2,406 6.2 -9.2°
Reaches altitude 10° 22:48:44 10° 166° (SSE) 1,533 4.9 -9.9°
Maximum altitude 22:50:42 14° 131° (SE) 1,285 4.2 -10.3°
Enters shadow 22:51:19 14° 118° (ESE) 1,310 4.2 -10.5°
